Location: Newark
(7.1028°S, 35.3258°W)
Time: 14:20:04
(UTC+00:00)

Hubble Space Telescope - Pass Details

Date: 21 January 2020
Orbit: 536 x 540 km, 28.5° (Epoch: 28 February)

Event Time Altitude Azimuth Distance (km) Brightness Sun altitude
Exits shadow 06:55:15 - 217° (SW) 1,922 3.5 -20.0°
Reaches altitude 10° 06:55:39 10° 215° (SW) 1,784 3.3 -19.9°
Maximum altitude 06:59:15 29° 154° (SSE) 1,005 2.6 -19.1°
Drops below altitude 10° 07:02:51 10° 93° (E) 1,780 4.5 -18.2°
Sets 07:05:19 0° 81° (E) 2,669 5.3 -17.7°
